WB6TTB Weather Reports


Display with metric or nautical units.
time (UTC)temp
F
wind
direction
speed
MPH
gust
MPH
rain 1hr
in
rain 24hr
in
rain mn
in
humidity
%
barometer
mb
20260502163003 52 294 0.0 2.0 0.00 0.00 0.00 95 1012.7
20260502162403 52 302 0.0 2.0 0.00 0.00 0.00 95 1012.7
20260502161803 52 314 0.0 1.0 0.00 0.00 0.00 95 1012.6
20260502161204 52 0 0.0 0.0 0.00 0.00 0.00 96 1012.6
20260502151803 51 0 0.0 0.0 0.00 0.00 0.00 97 1012.4
20260502151204 51 0 0.0 0.0 0.00 0.00 0.00 97 1012.4
20260502150603 51 0 0.0 0.0 0.00 0.00 0.00 97 1012.2
20260502130603 51 289 0.0 1.0 0.00 0.00 0.00 97 1011.2
20260502123603 51 290 0.0 7.0 0.00 0.00 0.00 97 1011.2
20260502123003 51 291 0.0 2.0 0.00 0.00 0.00 97 1011.2
20260502122403 51 292 0.0 1.0 0.00 0.00 0.00 97 1011.2
20260502121803 51 292 0.0 1.0 0.00 0.00 0.00 97 1011.2
20260502121203 51 292 0.0 1.0 0.00 0.00 0.00 97 1011.2
20260502120603 51 291 0.0 2.0 0.00 0.00 0.00 97 1011.1
20260502115403 51 294 0.0 2.0 0.00 0.00 0.00 97 1011.1
20260502114803 51 291 0.0 1.0 0.00 0.00 0.00 97 1011.1
20260502114203 51 287 0.0 1.0 0.00 0.00 0.00 97 1011.1
20260502113603 51 0 0.0 0.0 0.00 0.00 0.00 97 1011.2
20260502112403 51 294 0.0 1.0 0.00 0.00 0.00 97 1011.1
20260502111803 51 0 0.0 1.0 0.00 0.00 0.00 97 1011.2
20260502111204 51 0 0.0 0.0 0.00 0.00 0.00 97 1011.2
20260502110604 51 0 0.0 0.0 0.00 0.00 0.00 97 1011.2
20260502110004 51 0 0.0 0.0 0.00 0.00 0.00 97 1011.3
20260502105404 51 0 0.0 0.0 0.00 0.00 0.00 97 1011.3
20260502104804 51 293 0.0 1.0 0.00 0.00 0.00 97 1011.3
20260502103604 51 0 0.0 0.0 0.00 0.00 0.00 97 1011.4
20260502103004 51 0 0.0 0.0 0.00 0.00 0.00 97 1011.4
20260502102404 51 0 0.0 0.0 0.00 0.00 0.00 97 1011.4
20260502101804 51 0 0.0 0.0 0.00 0.00 0.00 97 1011.5
20260502101203 51 0 0.0 0.0 0.00 0.00 0.00 97 1011.5
20260502100603 51 0 0.0 0.0 0.00 0.00 0.00 97 1011.6
20260502091203 51 298 0.0 3.0 0.00 0.00 0.00 97 1011.9
20260502090603 51 297 0.0 4.0 0.00 0.00 0.00 97 1011.9
20260502071203 51 0 0.0 0.0 0.00 0.00 0.00 97 1012.1
20260502070603 51 0 0.0 0.0 0.00 0.00 0.00 97 1012.0
20260502065403 51 0 0.0 0.0 0.00 0.00 0.00 97 1012.3
20260502064803 51 0 0.0 0.0 0.00 0.00 0.00 97 1012.2
20260502064203 51 0 0.0 0.0 0.00 0.00 0.00 97 1012.2
20260502063603 51 0 0.0 0.0 0.00 0.00 0.00 96 1012.3
20260502063003 51 0 0.0 0.0 0.00 0.00 0.00 96 1012.3
20260502062403 51 0 0.0 0.0 0.00 0.00 0.00 96 1012.2
20260502061804 51 0 0.0 0.0 0.00 0.00 0.00 96 1012.4
20260502061204 51 0 0.0 0.0 0.00 0.00 0.00 96 1012.4
20260502060604 51 0 0.0 0.0 0.00 0.00 0.00 96 1012.4
20260502060004 51 0 0.0 0.0 0.00 0.00 0.00 96 1012.4
20260502055404 51 0 0.0 0.0 0.00 0.00 0.00 96 1012.4
20260502054204 51 0 0.0 0.0 0.00 0.00 0.00 96 1012.5
20260502053604 51 0 0.0 0.0 0.00 0.00 0.00 96 1012.5
20260502051803 51 0 0.0 0.0 0.00 0.00 0.00 96 1012.5
20260502045403 52 0 0.0 0.0 0.00 0.00 0.00 96 1012.5
20260502044203 52 0 0.0 0.0 0.00 0.00 0.00 96 1012.4
20260502043603 52 0 0.0 0.0 0.00 0.00 0.00 96 1012.4
20260502043003 52 0 0.0 0.0 0.00 0.00 0.00 96 1012.4
20260502042403 52 0 0.0 0.0 0.00 0.00 0.00 96 1012.3
20260502041803 52 0 0.0 0.0 0.00 0.00 0.00 96 1012.3
20260502040603 52 0 0.0 0.0 0.00 0.00 0.00 96 1012.3
20260502040003 52 0 0.0 0.0 0.00 0.00 0.00 96 1012.2
20260502035404 52 0 0.0 0.0 0.00 0.00 0.00 95 1012.2
20260502034804 52 0 0.0 0.0 0.00 0.00 0.00 95 1011.9
20260502034204 52 0 0.0 0.0 0.00 0.00 0.00 95 1011.8
20260502033604 52 0 0.0 0.0 0.00 0.00 0.00 95 1011.8
20260502033004 52 292 0.0 1.0 0.00 0.00 0.00 95 1011.8
20260502032404 52 282 0.0 1.0 0.00 0.00 0.00 95 1011.6
20260502031204 53 0 0.0 0.0 0.00 0.00 0.00 94 1011.7
20260502030603 53 287 0.0 1.0 0.00 0.00 0.00 94 1011.7
20260502030004 53 281 0.0 1.0 0.00 0.00 0.00 93 1011.7
20260502025404 53 277 0.0 1.0 0.00 0.00 0.00 93 1011.6
20260502024204 54 278 0.0 1.0 0.00 0.00 0.00 93 1011.5
20260502023603 54 286 0.0 1.0 0.00 0.00 0.00 92 1011.5
20260502023003 54 286 0.0 1.0 0.00 0.00 0.00 92 1011.5
20260502022403 55 285 0.0 1.0 0.00 0.00 0.00 91 1011.5
20260502021803 55 273 0.0 1.0 0.00 0.00 0.00 91 1011.5
20260502021203 55 299 0.0 3.0 0.00 0.00 0.00 91 1011.4
20260502020603 55 298 0.0 3.0 0.00 0.00 0.00 90 1011.4
20260502020003 56 302 0.0 2.0 0.00 0.00 0.00 89 1011.4
20260502015403 56 0 0.0 0.0 0.00 0.00 0.00 90 1011.5
20260502014803 56 298 0.0 2.0 0.00 0.00 0.00 89 1011.5
20260502014203 56 292 0.0 5.0 0.00 0.00 0.00 89 1011.5
20260502013603 57 290 0.0 5.0 0.00 0.00 0.00 88 1011.4
20260502013004 57 264 0.0 2.0 0.00 0.00 0.00 87 1011.4
20260502012404 57 280 0.0 3.0 0.00 0.00 0.00 87 1011.4
20260502011204 57 297 0.0 7.0 0.00 0.00 0.00 87 1011.4
20260502010604 58 295 1.0 7.0 0.00 0.00 0.00 87 1011.5
20260502010004 58 291 0.0 4.0 0.00 0.00 0.00 87 1011.5
20260502005404 57 293 0.0 3.0 0.00 0.00 0.00 87 1011.5
20260502004804 57 296 0.0 4.0 0.00 0.00 0.00 87 1011.6
20260502003603 57 300 1.0 10.0 0.00 0.00 0.00 87 1011.6
20260502003003 58 296 1.0 5.0 0.00 0.00 0.00 85 1011.5
20260502002403 59 291 1.0 9.0 0.00 0.00 0.00 85 1011.5
20260502001803 58 292 1.0 9.0 0.00 0.00 0.00 86 1011.6
20260502001203 59 293 0.0 5.0 0.00 0.00 0.00 86 1011.7
20260502000603 59 290 0.0 5.0 0.00 0.00 0.00 85 1011.6
20260502000004 59 286 0.0 6.0 0.00 0.00 0.00 85 1011.7
20260501234803 59 292 0.0 6.0 0.00 0.00 0.00 85 1011.8
20260501233603 59 284 0.0 3.0 0.00 0.00 0.00 85 1011.9
20260501232403 59 303 0.0 5.0 0.00 0.00 0.00 85 1011.9
20260501231803 59 298 0.0 5.0 0.00 0.00 0.00 86 1012.0
20260501231203 58 296 0.0 4.0 0.00 0.00 0.00 86 1012.0
20260501230603 58 298 1.0 9.0 0.00 0.00 0.00 87 1012.1
20260501230003 58 292 1.0 9.0 0.00 0.00 0.00 87 1012.2
20260501225404 59 283 1.0 6.0 0.00 0.00 0.00 86 1012.2
20260501224804 59 289 1.0 7.0 0.00 0.00 0.00 86 1012.3
20260501224204 59 296 0.0 4.0 0.00 0.00 0.00 86 1012.3
20260501223604 58 290 0.0 7.0 0.00 0.00 0.00 86 1012.5
20260501223004 58 293 1.0 7.0 0.00 0.00 0.00 87 1012.6
20260501221804 58 296 1.0 7.0 0.00 0.00 0.00 86 1012.9
20260501221204 58 290 0.0 6.0 0.00 0.00 0.00 86 1013.1
20260501220604 59 288 1.0 5.0 0.00 0.00 0.00 85 1013.1
20260501220003 60 294 0.0 4.0 0.00 0.00 0.00 84 1013.2
20260501215403 59 308 0.0 3.0 0.00 0.00 0.00 86 1013.3
20260501214803 59 0 0.0 0.0 0.00 0.00 0.00 86 1013.3
20260501214203 59 0 0.0 0.0 0.00 0.00 0.00 86 1013.3
20260501213603 59 0 0.0 0.0 0.00 0.00 0.00 86 1013.3
20260501213003 58 0 0.0 0.0 0.00 0.00 0.00 86 1013.5
20260501212403 59 0 0.0 0.0 0.00 0.00 0.00 86 1013.5
20260501211803 59 0 0.0 0.0 0.00 0.00 0.00 86 1013.5
20260501211203 59 0 0.0 0.0 0.00 0.00 0.00 85 1013.5
20260501210603 59 0 0.0 0.0 0.00 0.00 0.00 86 1013.6
20260501210003 59 0 0.0 0.0 0.00 0.00 0.00 86 1013.5
20260501205403 59 0 0.0 0.0 0.00 0.00 0.00 86 1013.5
20260501204803 58 0 0.0 0.0 0.00 0.00 0.00 86 1013.6
20260501204203 58 0 0.0 0.0 0.00 0.00 0.00 86 1013.7
20260501203603 58 0 0.0 0.0 0.00 0.00 0.00 87 1013.7
20260501203003 58 0 0.0 0.0 0.00 0.00 0.00 87 1013.8
20260501202403 58 0 0.0 0.0 0.00 0.00 0.00 87 1013.8
20260501201204 58 0 0.0 0.0 0.00 0.00 0.00 89 1013.9
20260501200604 57 0 0.0 0.0 0.00 0.00 0.00 88 1013.9
20260501200004 57 0 0.0 0.0 0.00 0.00 0.00 89 1014.0
20260501195404 57 0 0.0 0.0 0.00 0.00 0.00 88 1014.0
20260501194804 57 0 0.0 0.0 0.00 0.00 0.00 88 1014.1
20260501193604 58 0 0.0 0.0 0.00 0.00 0.00 88 1014.1
20260501193004 58 0 0.0 0.0 0.00 0.00 0.00 88 1014.2
20260501192403 57 0 0.0 0.0 0.00 0.00 0.00 88 1014.3
20260501190603 56 0 0.0 0.0 0.00 0.00 0.00 90 1014.5
20260501190003 56 0 0.0 0.0 0.00 0.00 0.00 90 1014.5
20260501185403 55 0 0.0 0.0 0.00 0.00 0.00 91 1014.6
20260501184803 55 0 0.0 0.0 0.00 0.00 0.00 92 1014.6
20260501184203 55 0 0.0 0.0 0.00 0.00 0.00 93 1014.6
20260501183603 54 0 0.0 0.0 0.00 0.00 0.00 94 1014.7
20260501183003 54 0 0.0 0.0 0.00 0.00 0.00 95 1014.6
20260501182403 54 0 0.0 0.0 0.00 0.00 0.00 94 1014.7
20260501180604 53 0 0.0 0.0 0.00 0.00 0.00 95 1014.7
20260501180004 53 0 0.0 0.0 0.00 0.00 0.00 96 1014.6
20260501175404 53 0 0.0 0.0 0.00 0.00 0.00 96 1014.6
20260501174804 53 0 0.0 0.0 0.00 0.00 0.00 96 1014.6
20260501174204 53 0 0.0 0.0 0.00 0.00 0.00 96 1014.7
20260501173004 53 0 0.0 0.0 0.00 0.00 0.00 97 1014.6
20260501172403 52 0 0.0 0.0 0.00 0.00 0.00 97 1014.5
20260501171204 52 0 0.0 0.0 0.00 0.00 0.00 97 1014.6
20260501170604 52 0 0.0 0.0 0.00 0.00 0.00 97 1014.6
20260501164203 51 0 0.0 0.0 0.00 0.00 0.00 97 1014.5
20260501163603 51 0 0.0 0.0 0.00 0.00 0.00 97 1014.5